Location: Brabourne
(51.1333°N, 1.0000°E)
Time: 20:38:13
(UTC+00:00)

BREEZE-M R/B - Pass Details

Date: 25 October 2021
Orbit: 592 x 26575 km, 48.9° (Epoch: 23 November)

Event Time Altitude Azimuth Distance (km) Brightness Sun altitude
Rises 17:16:58 0° 270° (W) 3,862 8.7 -6.0°
Reaches altitude 10° 17:20:00 10° 267° (W) 2,292 7.2 -6.5°
Maximum altitude 17:24:01 65° 185° (S) 654 2.8 -7.1°
Drops below altitude 10° 17:27:51 10° 103° (ESE) 2,198 4.8 -7.7°
Enters shadow 17:28:28 - 102° (ESE) 2,517 5.1 -7.8°
